sat.trackr.live / text

‹ back to catalog

STARLINK-3708

NORAD 52111 · 2022-029Z

PAYLOAD ACTIVE UNKNOWN

§ Identity

Operator
Country
US
Launch date
2022-03-19
Launch site
AFETR
Launch vehicle
Mass (kg)
RCS (m²)

Purposes: comms

External: N2YO · Heavens-Above · Gunter

§ Orbital elements

Epoch: 2026-09-20T01:18:49.771872Z

Period
93.84 min
Inclination
53.1583°
Eccentricity
0.0001173
Mean motion
15.34552619 rev/d
Perigee alt
461.4 km
Apogee alt
463.1 km
Semi-major
6,840.4 km
B*
-1.0795e-3
RAAN
271.4564°
Arg perigee
117.7715°
Mean anomaly
242.3407°
Rev number
25,033

§ Raw data

STARLINK-37081 52111U 22029Z   26263.05474273 -.00036849  00000+0 -10795-2 0  99912 52111  53.1583 271.4564 0001173 117.7715 242.3407 15.34552619250333

JSON: /api/v1/satellites/52111 · /tle

For live sub-satellite position, see the globe view (requires WebGL).

§ Visibility from observer

Set your observer location to see the next 7 days of passes ≥ 10°. The values pass through the URL so the page stays shareable.

No JS? Fill the form by hand. The geolocation button needs JavaScript.